カタログに戻る

SL-8 DEB

運用中PO
NORAD 14568·DEBRIS·🇷🇺 Russia

打ち上げ Jan 12, 1983 から Plesetsk Cosmodrome

Loading…

次のパス (今後24時間)

TLE

最新Source: Space-Track

元期: Sep 13, 2026, 21:47 UTC

1 14568U 83001C   26256.90766142  .00004625  00000-0  12440-2 0  9992
2 14568  82.8869  67.4697 0018923 192.4782 167.5948 14.47779926310530

AllMySatでSL-8 DEBをリアルタイム追跡

Download on the App Store